Torna al catalogo

CZ-6A DEB

AttivoPO
NORAD 61354·DEBRIS·🇨🇳 China

Lanciato Aug 6, 2024 da Taiyuan Satellite Launch Center

Loading…

Prossimi Passaggi (prossime 24 ore)

TLE

AggiornatoSource: Space-Track

Epoca: Sep 13, 2026, 12:11 UTC

1 61354U 24140VT  26256.50805443  .00001484  00000-0  27363-3 0  9991
2 61354  89.0124 260.4379 0109298 295.8087  63.1882 14.61204176107990

Traccia CZ-6A DEB in tempo reale con AllMySat

Download on the App Store